Regional Weather Roundup
Issued by NWS

Home | Current Version | Previous Version | Text Only | Print | Product List | Glossary On
Versions: 1 2 3 4 5 6 7 8 9 10 11 12 13 14 15 16 17 18 19 20 21 22 23 24 25 26 27 28 29 30 31 32 33 34 35 36 37 38 39 40 41 42 43 44 45 46 47 48 49 50
000
ASUS43 KDMX 261106
RWRIA

WEATHER ROUNDUP FOR IOWA
NATIONAL WEATHER SERVICE DES MOINES IA
600 AM CDT THU APR 26 2018

NOTE: "FAIR" INDICATES FEW OR NO CLOUDS BELOW 12,000 FEET WITH NO
SIGNIFICANT WEATHER AND/OR OBSTRUCTIONS TO VISIBILITY.

* - THESE STATIONS ARE NOT NWS STATIONS...THUS NOT UNDER NWS
QUALITY CONTROL.  THEY ALSO DO NOT REPORT WEATHER SUCH
AS PRECIPITATION OR FOG.

IAZ001>003-012>014-020>022-031>034-043>046-261200-
   NORTHWEST IOWA

CITY           SKY/WX    TMP DP  RH WIND       PRES   REMARKS
CARROLL *      CLOUDY    34  28  80 CALM      29.95S
CHEROKEE *     CLOUDY    33  31  94 SW3       29.92F
DENISON *      CLOUDY    36  30  80 CALM      29.97S
LE MARS *      CLOUDY    41  34  75 S5        29.91F
ORANGE CITY *  CLOUDY    43  36  75 SW9       29.90S
SHELDON *        N/A     37  32  81 SW8       29.88F WCI  31
SIOUX CITY     CLOUDY    42  33  70 SW9       29.92F
SPENCER        CLOUDY    38  30  73 S9        29.90F WCI  31
$$

IAZ055>058-069>071-079>083-090>094-261200-
   SOUTHWEST IOWA

CITY           SKY/WX    TMP DP  RH WIND       PRES   REMARKS
ATLANTIC *     PTCLDY    32  32 100 CALM      29.96S
AUDUBON *      PTCLDY    28  27  93 CALM      29.97R
CLARINDA *     PTCLDY    32  30  93 CALM      30.00S
COUNCIL BLFS * PTCLDY    41  36  81 SW6       29.97R
CRESTON *      PTCLDY    37  34  87 W5        29.97S WCI  34
HARLAN  *      CLOUDY    34  34 100 CALM      30.00R
LAMONI         CLOUDY    37  33  85 NW8       29.95S WCI  31
RED OAK *      CLOUDY    32  32 100 CALM      29.97S FOG
SHENANDOAH *   PTCLDY    34  32  93 CALM      29.98F
$$

IAZ047>049-059>061-072>074-084-261200-
   CENTRAL IOWA

CITY           SKY/WX    TMP DP  RH WIND       PRES   REMARKS
AMES           CLOUDY    35  31  85 CALM      29.94F
ANKENY *       CLOUDY    36  32  87 CALM      29.96S
BOONE *        CLOUDY    41  34  75 W7        29.94S
CHARITON *     CLOUDY    37  34  87 W7        29.95R WCI  32
DES MOINES     CLOUDY    42  33  70 CALM      29.95S
GRINNELL*      CLOUDY    34  31  88 NW3       29.95S
KNOXVILLE *    CLOUDY    37  30  75 W6        29.93S WCI  33
MARSHALLTOWN   CLOUDY    36  33  89 CALM      29.93F
NEWTON *       CLOUDY    41  32  70 NW3       29.95S
PELLA *        CLOUDY    40  29  65 CALM      29.95F
PERRY *        FAIR      36  31  82 W6        29.96R WCI  31
$$

IAZ004>006-015-016-023>025-035-036-261200-
   NORTH CENTRAL IOWA

CITY           SKY/WX    TMP DP  RH WIND       PRES   REMARKS
ALGONA *       CLOUDY    39  34  81 S10       29.91F WCI  32
CLARION *      CLOUDY    36  32  87 SW6       29.94S WCI  31
ESTHERVILLE    CLOUDY    37  32  82 S8        29.89F WCI  31
FORT DODGE *   MOCLDY    38  33  82 CALM      29.94S
MASON CITY     CLOUDY    38  33  82 S7        29.93F WCI  33
FOREST CITY *  FAIR      34  34 100 CALM      29.92S
WEBSTER CITY *   N/A     36  32  87 SW7       29.92S WCI  30
IOWA FALLS *   FAIR      36  32  85 CALM      29.94F
$$

IAZ007>011-017>019-026>030-037>042-050>054-066-261200-
   NORTHEAST IOWA

CITY           SKY/WX    TMP DP  RH WIND       PRES   REMARKS
CEDAR RAPIDS   FAIR      36  30  79 CALM      29.93S
CHARLES CITY * FAIR      39  39 100 S5        29.93S
CLINTON *      FAIR      35  29  78 SE6       29.96S WCI  30
DECORAH *      FAIR      37  32  81 CALM      29.91F
DUBUQUE        FAIR      36  30  79 S8        29.94S WCI  30
MONTICELLO *   FAIR      32  28  86 CALM      29.94S
OELWEIN *      FAIR      37  37 100 CALM      29.93F
WATERLOO       FAIR      33  30  88 CALM      29.93F
$$

IAZ064-065-067-068-078-261200-
   EAST CENTRAL IOWA

CITY           SKY/WX    TMP DP  RH WIND       PRES   REMARKS
DAVENPORT      FAIR      34  29  82 SE6       29.96F WCI  29
IOWA CITY      FAIR      38  31  76 CALM      29.95F
MT. PLEASANT * CLOUDY    34  30  86 CALM      29.94S
MUSCATINE *    FAIR      36  30  80 CALM      29.95S
QUAD CITIES    FAIR      33  29  85 E3        29.95S
$$

IAZ062-063-075>077-085>089-095>099-261200-
   SOUTHEAST IOWA

CITY           SKY/WX    TMP DP  RH WIND       PRES   REMARKS
BURLINGTON     CLEAR     38  32  79 SE3       29.94R
FAIRFIELD *    CLOUDY    36  25  64 N3        29.93S
FORT MADISON * CLEAR     43  39  87 CALM      29.95S
KEOKUK *       CLEAR     41  36  81 CALM      29.94R
OSKALOOSA *    FAIR      37  27  68 N6        29.94S WCI  32
CENTERVILLE *  FAIR      36  34  93 CALM      29.96S
OTTUMWA        CLOUDY    35  29  78 W5        29.93F WCI  31
WASHINGTON *   CLOUDY    37  28  70 NE3       29.94F
$$

ABBREVIATIONS USED IN REMARKS
   TC - TEMPERATURES IN CELSIUS
  WCI - WIND CHILL INDEX
   HX - HEAT INDEX
  VSB - VISIBILITY
$$





USA.gov is the U.S. government's official web portal to all federal, state and local government web resources and services.